FW6247 Weather Reports


Display with metric or nautical units.
time (UTC)temp
F
wind
direction
speed
MPH
gust
MPH
rain 1hr
in
rain 24hr
in
rain mn
in
humidity
%
barometer
mb
20260902053036 59 294 1.0 6.0 0.00 0.00 0.00 67 1012.7
20260902051538 59 337 0.0 7.0 0.00 0.00 0.00 65 1012.3
20260902050034 60 301 4.0 13.0 0.00 0.00 0.00 65 1012.1
20260902044539 59 298 4.0 11.0 0.00 0.00 0.00 66 1012.0
20260902043035 59 306 3.0 11.0 0.00 0.00 0.00 65 1011.9
20260902041542 61 295 5.0 13.0 0.00 0.00 0.00 63 1011.6
20260902040034 61 300 5.0 16.0 0.00 0.00 0.00 62 1011.4
20260902034532 61 300 6.0 18.0 0.00 0.00 0.00 61 1011.3
20260902031537 62 299 8.0 19.0 0.00 0.00 0.00 60 1010.6
20260902030035 62 295 7.0 18.0 0.00 0.00 0.00 59 1010.6
20260902024531 63 295 7.0 16.0 0.00 0.00 0.00 58 1010.7
20260902023030 63 294 7.0 19.0 0.00 0.00 0.00 58 1010.6
20260902014607 65 294 10.0 24.0 0.00 0.00 0.00 56 1010.1
20260902013038 66 303 5.0 19.0 0.00 0.00 0.00 57 1010.1
20260902010030 67 302 7.0 19.0 0.00 0.00 0.00 55 1009.4
20260902004642 68 305 7.0 22.0 0.00 0.00 0.00 55 1009.1
20260902003034 68 305 7.0 21.0 0.00 0.00 0.00 56 1009.3
20260902001532 69 302 6.0 18.0 0.00 0.00 0.00 55 1009.3
20260902000032 69 308 5.0 15.0 0.00 0.00 0.00 55 1009.4
20260901234607 69 309 6.0 18.0 0.00 0.00 0.00 55 1009.4
20260901233035 68 306 5.0 16.0 0.00 0.00 0.00 56 1009.5
20260901231537 68 309 5.0 16.0 0.00 0.00 0.00 56 1009.7
20260901230030 69 313 4.0 14.0 0.00 0.00 0.00 56 1009.7
20260901224538 69 306 5.0 15.0 0.00 0.00 0.00 54 1009.6
20260901223036 71 320 4.0 18.0 0.00 0.00 0.00 51 1009.5
20260901221534 72 310 5.0 17.0 0.00 0.00 0.00 51 1009.4
20260901214532 73 315 4.0 21.0 0.00 0.00 0.00 51 1009.4
20260901213035 72 315 4.0 15.0 0.00 0.00 0.00 50 1009.6
20260901204537 74 329 3.0 14.0 0.00 0.00 0.00 48 1009.8
20260901203033 75 339 3.0 14.0 0.00 0.00 0.00 46 1010.0
20260901201531 76 340 2.0 11.0 0.00 0.00 0.00 47 1010.2
20260901193030 74 347 1.0 7.0 0.00 0.00 0.00 50 1010.8
20260901191533 73 332 1.0 7.0 0.00 0.00 0.00 52 1011.0
20260901184537 69 354 1.0 6.0 0.00 0.00 0.00 56 1011.3
20260901183030 68 325 0.0 4.0 0.00 0.00 0.00 58 1011.4
20260901180039 67 327 1.0 6.0 0.00 0.00 0.00 60 1011.5
20260901174536 67 319 1.0 7.0 0.00 0.00 0.00 60 1011.4
20260901173037 66 308 0.0 5.0 0.00 0.00 0.00 63 1011.3
20260901170037 63 338 0.0 4.0 0.00 0.00 0.00 66 1011.4
20260901164536 62 359 0.0 3.0 0.00 0.00 0.00 67 1011.5
20260901163037 61 52 0.0 4.0 0.00 0.00 0.00 67 1011.5
20260901161532 60 58 1.0 4.0 0.00 0.00 0.00 69 1011.4
20260901160032 59 68 1.0 4.0 0.00 0.00 0.00 72 1011.4
20260901154538 58 84 0.0 4.0 0.00 0.00 0.00 74 1011.3
20260901153040 56 157 0.0 0.0 0.00 0.00 0.00 76 1011.3
20260901151539 55 157 0.0 0.0 0.00 0.00 0.00 77 1011.1
20260901150037 54 157 0.0 0.0 0.00 0.00 0.00 76 1011.0
20260901141535 53 157 0.0 2.0 0.00 0.00 0.00 71 1010.9
20260901134536 53 157 2.0 4.0 0.00 0.00 0.00 68 1010.5
20260901133038 54 157 2.0 4.0 0.00 0.00 0.00 66 1010.5
20260901131537 54 156 3.0 6.0 0.00 0.00 0.00 66 1010.5
20260901130038 54 158 3.0 5.0 0.00 0.00 0.00 66 1010.3
20260901124535 54 158 2.0 5.0 0.00 0.00 0.00 66 1010.2
20260901123036 54 152 2.0 4.0 0.00 0.00 0.00 66 1010.1
20260901120035 54 159 3.0 5.0 0.00 0.00 0.00 65 1010.2
20260901113035 54 158 3.0 5.0 0.00 0.00 0.00 64 1010.2
20260901111537 55 157 3.0 4.0 0.00 0.00 0.00 62 1010.1
20260901110036 55 157 3.0 5.0 0.00 0.00 0.00 61 1010.1
20260901104536 55 159 3.0 5.0 0.00 0.00 0.00 60 1010.2
20260901103038 55 158 3.0 5.0 0.00 0.00 0.00 61 1010.2
20260901094537 54 155 0.0 3.0 0.00 0.00 0.00 63 1010.3
20260901093036 54 157 0.0 4.0 0.00 0.00 0.00 62 1010.3
20260901090038 54 210 0.0 2.0 0.00 0.00 0.00 57 1010.3
20260901084536 57 181 0.0 2.0 0.00 0.00 0.00 54 1010.4
20260901083036 58 156 0.0 5.0 0.00 0.00 0.00 51 1010.5
20260901081537 57 158 4.0 6.0 0.00 0.00 0.00 51 1010.4
20260901080038 59 177 0.0 4.0 0.00 0.00 0.00 48 1010.5
20260901073037 59 163 4.0 8.0 0.00 0.00 0.00 46 1010.5
20260901070037 60 158 4.0 6.0 0.00 0.00 0.00 46 1010.4
20260901064537 61 158 3.0 6.0 0.00 0.00 0.00 45 1010.5
20260901063036 61 159 4.0 7.0 0.00 0.00 0.00 44 1010.7
20260901061537 62 170 4.0 7.0 0.00 0.00 0.00 43 1010.8
20260901060037 62 165 5.0 8.0 0.00 0.00 0.00 43 1010.7